Date,TemperatureHighF,TemperatureAvgF,TemperatureLowF,DewpointHighF,DewpointAvgF,DewpointLowF,HumidityHigh,HumidityAvg,HumidityLow,PressureMaxIn,PressureMinIn,WindSpeedMaxMPH,WindSpeedAvgMPH,GustSpeedMaxMPH,PrecipitationSumIn
2017-1-1,33.8,32.2,30.7,33.1,31.5,29.5,97,97,95,30.29,30.03,9,1,16,0.00
2017-1-2,38.5,35.9,33.3,36.1,33.7,31.8,97,94,90,30.28,30.09,9,1,9,0.17
2017-1-3,42.4,41.1,39.7,41.0,39.2,37.6,95,93,92,30.15,30.01,16,8,22,0.00
2017-1-4,44.4,38.9,33.4,43.3,38.5,31.6,96,89,75,30.17,29.91,30,5,30,0.16
2017-1-5,37.2,31.7,26.1,34.0,28.8,21.6,96,86,74,30.71,30.18,14,1,16,0.00
2017-1-6,31.6,26.9,22.1,26.4,22.6,19.6,91,84,76,30.76,30.60,6,0,12,0.01
2017-1-7,34.3,31.1,27.9,33.6,28.6,23.7,97,92,79,30.61,30.38,8,1,12,0.01
2017-1-8,41.4,37.8,34.3,40.8,37.3,33.6,98,98,97,30.47,30.38,3,0,5,0.07
2017-1-9,43.0,40.0,36.9,41.2,38.5,36.1,98,96,92,30.44,29.84,14,2,19,0.04
2017-1-10,43.9,42.3,40.8,41.9,40.6,39.7,100,95,93,29.88,29.70,16,2,25,0.19
2017-1-11,49.1,45.6,42.3,46.9,40.8,36.1,97,88,74,29.88,29.59,34,6,39,0.08
2017-1-12,45.0,40.5,36.1,40.1,37.8,34.9,96,86,77,29.82,29.02,23,5,28,0.61
2017-1-13,39.7,36.6,33.4,37.4,34.1,32.4,97,93,85,29.66,28.97,17,3,23,0.62
2017-1-14,40.1,36.6,33.1,36.3,33.2,31.5,96,89,78,30.01,29.65,13,2,25,0.04
2017-1-15,36.9,32.6,28.2,35.1,31.4,27.0,97,95,92,30.22,30.01,8,0,17,0.02
2017-1-16,33.4,29.8,26.2,32.7,29.4,25.0,97,97,94,30.53,30.22,5,0,12,0.01
2017-1-17,32.5,29.3,26.1,28.6,25.9,24.4,95,91,85,30.71,30.53,5,1,11,0.00
2017-1-18,32.2,29.0,25.9,28.9,26.5,24.6,95,93,87,30.74,30.67,9,1,13,0.00
2017-1-19,38.7,32.7,26.6,31.8,27.1,24.4,94,86,75,30.68,30.62,4,0,5,0.00
2017-1-20,41.0,33.2,25.3,30.2,25.5,22.1,89,77,61,30.62,30.52,4,0,5,0.00
2017-1-21,40.6,34.9,29.3,34.2,30.5,27.0,95,88,76,30.52,30.35,8,1,13,0.00
2017-1-22,37.4,29.7,21.9,30.6,25.6,19.8,100,87,71,30.36,30.31,4,0,5,0.00
2017-1-23,33.4,27.5,21.6,31.5,26.2,20.1,95,93,91,30.34,30.31,3,0,5,0.00
2017-1-24,36.0,34.7,33.3,35.2,33.1,31.5,97,96,93,30.45,30.30,4,0,6,0.02
2017-1-25,33.6,29.2,24.8,32.5,28.4,22.8,96,92,83,30.48,30.39,11,2,16,0.00
2017-1-26,35.4,29.9,24.3,29.3,25.7,21.9,99,86,77,30.39,30.14,19,4,21,0.00
2017-1-27,43.5,34.5,25.5,34.0,28.8,22.6,89,78,66,30.14,30.04,17,6,25,0.01
2017-1-28,49.5,42.7,35.8,41.4,33.5,26.2,91,71,54,30.05,29.97,17,4,19,0.00
2017-1-29,46.8,43.2,39.6,41.9,39.4,36.3,94,89,80,30.06,30.00,13,2,18,0.02
2017-1-30,46.0,41.9,37.8,45.3,40.4,36.1,97,95,87,30.00,29.76,21,5,27,0.24
2017-1-31,39.6,38.3,37.0,37.8,36.3,35.4,95,93,88,30.07,29.94,8,0,13,0.00
2017-2-1,41.5,37.8,34.0,39.7,35.5,31.8,100,89,82,30.07,29.83,23,8,26,0.02
2017-2-2,54.0,47.4,40.8,48.9,43.7,39.6,96,91,82,29.84,29.61,21,9,27,0.02
2017-2-3,54.3,48.2,42.1,48.4,44.9,39.6,93,89,79,29.66,29.49,17,3,21,0.01
2017-2-4,46.4,43.0,39.6,43.9,41.7,37.9,96,92,86,29.56,29.47,19,5,22,0.19
2017-2-5,47.8,43.2,38.7,43.5,40.4,36.0,97,92,80,29.81,29.53,13,2,17,0.02
2017-2-6,45.0,39.3,33.6,42.6,37.0,31.8,97,93,86,30.12,29.82,12,2,14,0.00
2017-2-7,39.4,37.3,35.2,37.6,35.8,34.2,97,94,92,30.09,30.01,19,8,21,0.10
2017-2-8,36.9,34.7,32.4,34.5,32.6,29.8,97,93,88,30.37,30.08,16,4,21,0.01
2017-2-9,33.1,30.8,28.4,29.8,28.2,25.9,90,88,85,30.39,30.28,17,5,18,0.00
2017-2-10,32.2,29.9,27.5,28.9,27.4,25.0,91,88,87,30.28,30.18,17,6,19,0.00
2017-2-11,35.2,33.5,31.8,33.8,31.3,28.9,100,93,88,30.18,30.12,12,3,16,0.09
2017-2-12,39.9,36.6,33.3,36.1,33.5,30.9,97,92,85,30.41,30.15,19,9,26,0.21
2017-2-13,47.7,39.3,30.9,38.7,32.7,29.1,93,83,70,30.42,30.35,22,9,26,0.00
2017-2-14,50.7,41.5,32.5,37.8,32.2,28.2,89,76,59,30.45,30.34,13,5,19,0.00
2017-2-15,58.3,46.2,34.0,46.2,38.1,30.7,89,78,62,30.51,30.43,11,2,13,0.00
2017-2-16,50.2,46.2,42.1,46.4,43.8,40.6,96,92,85,30.43,30.30,14,2,21,0.00
2017-2-17,49.3,44.9,40.6,45.0,42.5,39.6,96,93,85,30.35,30.23,12,1,18,0.02
2017-2-18,51.1,45.2,39.2,45.0,40.6,35.4,97,87,67,30.35,30.25,5,0,8,0.00
2017-2-19,45.7,42.0,38.3,44.4,39.5,35.1,97,93,86,30.25,30.11,13,2,14,0.02
2017-2-20,52.5,48.5,44.4,51.6,47.7,43.3,100,97,95,30.14,29.92,16,5,23,0.17
2017-2-21,52.9,49.5,46.0,50.7,46.3,41.7,97,88,72,29.99,29.81,23,4,27,0.01
2017-2-22,52.2,49.8,47.5,50.2,48.8,46.0,96,94,88,29.81,29.64,25,11,31,0.72
2017-2-23,51.4,45.8,40.1,48.7,45.2,37.9,100,91,72,29.66,29.17,43,10,55,0.51
2017-2-24,47.8,41.0,34.3,38.7,36.1,32.2,93,84,63,30.13,29.35,31,4,48,0.09
2017-2-25,46.6,40.4,34.3,40.1,36.5,32.7,96,85,73,30.13,29.91,13,1,21,0.00
2017-2-26,51.3,47.6,44.1,48.2,44.0,39.7,92,87,79,29.91,29.74,14,2,22,0.04
2017-2-27,54.9,49.2,43.5,47.3,44.9,39.2,94,82,69,29.75,29.19,22,4,42,0.24
2017-2-28,48.2,42.9,37.6,39.2,37.2,35.6,95,84,69,29.36,29.17,18,4,30,0.16
2017-3-1,49.5,43.3,37.2,43.2,40.4,35.4,96,90,73,29.56,29.36,17,4,22,0.15
2017-3-2,46.4,43.3,40.3,43.7,39.5,35.8,96,85,74,29.96,29.45,27,8,36,0.20
2017-3-3,49.5,43.1,36.7,42.3,38.6,33.4,89,80,70,29.96,29.42,21,5,23,0.00
2017-3-4,58.6,52.3,46.0,49.1,44.8,41.0,96,79,68,29.42,29.26,21,4,26,0.52
2017-3-5,51.6,46.9,42.3,44.1,41.8,38.1,95,88,60,29.50,29.36,22,4,28,0.23
2017-3-6,45.9,43.2,40.5,43.9,41.2,38.3,97,93,87,29.75,29.45,6,1,12,0.08
2017-3-7,48.7,43.4,38.1,44.6,41.6,36.9,100,93,84,30.12,29.75,17,1,21,0.04
2017-3-8,50.0,43.2,36.3,49.1,41.3,35.2,100,96,91,30.11,29.83,23,4,30,0.53
2017-3-9,55.2,47.0,38.8,52.2,43.5,37.8,99,89,64,30.28,29.99,26,4,35,0.02
2017-3-10,53.8,45.0,36.3,45.3,39.1,35.1,98,81,54,30.39,30.28,8,0,13,0.00
2017-3-11,55.2,46.7,38.1,44.2,40.0,35.4,91,77,60,30.29,30.06,8,2,12,0.00
2017-3-12,59.7,49.8,39.9,43.2,38.2,35.4,85,71,43,30.06,29.95,18,6,25,0.00
2017-3-13,57.6,47.4,37.2,48.6,42.3,34.0,93,78,62,30.45,30.15,9,1,21,0.00
2017-3-14,60.8,50.2,39.7,50.5,44.3,38.1,100,85,62,30.47,30.40,18,3,26,0.00
2017-3-15,60.1,50.4,40.8,47.5,43.9,37.6,96,80,50,30.50,30.41,11,0,18,0.00
2017-3-16,64.6,50.3,36.0,47.5,41.7,34.2,96,76,48,30.41,30.00,12,0,17,0.00
2017-3-17,51.1,47.5,43.9,45.5,40.2,33.6,91,75,54,30.03,29.75,16,4,31,0.03
2017-3-18,54.9,49.4,43.9,52.3,48.0,41.2,96,94,89,29.77,29.60,19,6,28,0.32
2017-3-19,54.7,53.1,51.4,50.0,49.0,48.2,92,86,82,29.76,29.72,17,8,30,0.02
2017-3-20,53.4,51.5,49.6,51.3,49.1,47.8,96,93,84,29.76,29.65,21,5,26,0.14
2017-3-21,51.4,44.8,38.3,48.7,40.9,32.4,96,80,57,29.94,29.66,22,4,31,0.06
2017-3-22,55.0,44.8,34.5,40.6,36.1,30.7,88,70,47,29.96,29.91,22,6,26,0.00
2017-3-23,57.7,47.5,37.2,45.7,40.6,33.8,90,76,61,30.20,29.95,19,4,25,0.00
2017-3-24,57.7,50.6,43.5,44.6,41.3,37.2,90,74,58,30.48,30.21,19,6,25,0.00
2017-3-25,59.0,48.5,38.1,40.8,35.9,29.8,87,62,34,30.48,30.29,19,3,23,0.00
2017-3-26,57.9,48.9,39.9,46.8,41.5,37.6,93,79,58,30.31,30.23,14,3,18,0.00
2017-3-27,63.9,51.0,38.1,44.2,39.7,36.1,94,66,36,30.26,30.13,17,3,21,0.00
2017-3-28,68.5,54.5,40.5,49.6,41.9,35.1,86,64,37,30.19,30.11,21,1,21,0.00
2017-3-29,59.4,54.7,50.0,52.5,49.7,46.4,92,83,74,30.27,30.18,21,4,25,0.00
2017-3-30,73.2,64.1,55.0,54.3,51.0,48.6,81,68,49,30.27,30.10,13,1,25,0.00
2017-3-31,75.4,64.2,53.1,54.5,51.1,47.3,91,70,41,30.10,29.85,14,3,23,0.01
2017-4-1,59.7,55.1,50.4,55.0,51.5,48.6,97,90,79,29.96,29.85,12,0,14,0.06
2017-4-2,64.2,56.2,48.2,52.9,49.0,45.1,96,83,53,30.28,29.96,13,1,17,0.00
2017-4-3,59.2,51.5,43.7,49.1,45.1,41.2,96,88,66,30.37,30.28,9,1,13,0.00
2017-4-4,63.9,52.2,40.6,48.9,43.6,39.4,97,78,48,30.28,30.22,9,1,12,0.00
2017-4-5,57.4,48.6,39.7,48.2,43.0,38.5,97,80,59,30.34,30.25,14,1,23,0.02
2017-4-6,52.9,47.2,41.4,43.9,41.1,37.9,90,80,64,30.39,30.31,9,0,17,0.01
2017-4-7,57.7,49.1,40.5,48.6,44.5,37.4,93,82,68,30.35,30.24,13,1,17,0.00
2017-4-8,60.6,52.7,45.0,46.6,44.5,41.0,93,77,56,30.30,30.23,12,0,16,0.00
2017-4-9,73.8,55.6,37.4,52.2,43.8,35.8,97,72,35,30.26,30.06,13,1,16,0.00
2017-4-10,58.3,51.8,45.3,47.3,43.4,38.7,86,72,51,30.26,30.00,17,2,21,0.00
2017-4-11,58.5,48.7,39.0,45.1,41.0,36.7,94,77,55,30.32,30.19,25,2,25,0.00
2017-4-12,53.8,49.4,45.0,47.1,44.3,39.9,95,83,74,30.19,29.91,19,4,30,0.02
2017-4-13,56.8,49.0,41.2,47.5,43.2,37.0,96,80,55,30.02,29.89,19,4,23,0.02
2017-4-14,52.5,45.2,37.8,45.9,41.5,35.6,94,84,69,30.02,29.95,9,1,16,0.00
2017-4-15,55.0,48.1,41.2,48.6,42.2,35.8,96,77,58,30.04,29.87,23,6,35,0.02
2017-4-16,50.5,45.0,39.6,45.5,41.4,37.4,95,86,72,30.11,30.04,21,1,26,0.08
2017-4-17,53.1,45.9,38.8,43.0,38.4,34.0,95,79,51,30.19,30.01,17,2,26,0.45
2017-4-18,52.9,43.0,33.1,40.6,35.6,30.0,96,78,56,30.50,30.19,14,1,22,0.02
2017-4-19,48.4,41.3,34.3,31.5,29.5,27.5,80,63,45,30.63,30.50,14,1,14,0.00
2017-4-20,55.2,42.0,28.9,36.3,31.0,26.2,92,65,38,30.64,30.51,12,1,17,0.00
2017-4-21,59.4,50.5,41.5,50.4,43.2,33.4,88,75,69,30.51,30.29,18,3,23,0.00
2017-4-22,53.1,47.6,42.1,48.2,40.6,34.5,95,77,54,30.32,30.25,17,3,27,0.06
2017-4-23,51.6,44.8,37.9,40.5,37.9,35.2,92,78,60,30.31,30.22,17,2,23,0.00
2017-4-24,59.5,47.8,36.1,47.1,40.9,33.3,92,77,57,30.22,29.73,13,2,21,0.00
2017-4-25,51.1,43.9,36.7,44.8,37.9,28.6,93,78,44,29.85,29.68,21,3,34,0.09
2017-4-26,52.7,43.8,34.9,39.9,36.4,32.2,92,79,54,29.99,29.83,19,1,25,0.02
2017-4-27,54.0,43.5,32.9,40.8,35.5,31.3,95,76,50,30.03,29.98,18,1,23,0.00
2017-4-28,54.1,45.5,37.0,44.6,39.0,32.7,87,77,61,30.03,29.92,14,1,19,0.00
2017-4-29,57.9,47.1,36.3,41.4,37.5,33.8,92,70,48,30.08,30.02,9,1,14,0.00
2017-4-30,67.1,53.2,39.4,41.7,37.7,32.7,78,56,37,30.03,29.69,30,11,39,0.00
2017-5-1,55.6,52.5,49.5,51.1,46.2,39.0,95,82,57,30.00,29.68,18,5,21,0.21
2017-5-2,61.2,53.7,46.2,52.0,47.8,44.1,97,90,68,30.07,30.00,16,2,27,0.14
2017-5-3,60.1,53.3,46.6,52.3,48.2,45.0,100,89,70,30.14,30.05,13,3,21,0.10
2017-5-4,58.5,53.3,48.2,50.2,47.4,43.5,94,83,71,30.16,30.07,13,2,21,0.00
2017-5-5,52.9,49.4,45.9,47.8,45.6,44.1,94,89,80,30.17,30.06,12,1,17,0.02
2017-5-6,67.3,55.0,42.6,53.6,48.1,41.4,97,79,56,30.06,29.81,21,4,22,0.00
2017-5-7,63.3,55.8,48.2,54.9,50.3,44.1,96,84,69,30.07,29.85,12,1,16,0.00
2017-5-8,61.0,53.2,45.3,49.5,43.9,38.5,92,78,51,30.24,30.07,14,2,26,0.00
2017-5-9,58.8,47.0,35.4,42.3,38.0,32.7,94,70,46,30.24,30.00,13,1,17,0.00
2017-5-10,62.4,49.0,35.6,44.8,40.1,33.6,95,70,48,29.99,29.68,6,1,14,0.00
2017-5-11,74.3,58.7,43.0,57.6,48.0,39.0,95,69,49,29.68,29.40,18,5,31,0.08
2017-5-12,73.8,65.9,57.9,59.7,55.9,53.2,94,77,52,29.69,29.46,16,3,19,0.01
2017-5-13,73.2,64.3,55.4,59.2,55.6,52.7,94,81,53,30.00,29.68,14,2,23,0.03
2017-5-14,71.4,61.4,51.4,57.4,52.2,46.9,96,76,47,30.27,30.00,13,1,19,0.01
2017-5-15,73.6,59.3,45.0,52.9,45.8,38.5,92,62,32,30.40,30.27,9,1,17,0.00
2017-5-16,82.0,72.1,62.2,64.0,57.1,49.5,81,62,45,30.35,30.25,6,0,14,0.00
2017-5-17,84.9,73.1,61.2,61.5,57.4,54.1,93,59,37,30.26,29.81,22,7,27,0.00
2017-5-18,74.8,67.8,61.0,61.5,59.1,54.7,95,81,50,29.91,29.78,16,2,17,0.14
2017-5-19,62.2,57.2,52.3,60.3,54.8,50.5,95,90,80,29.96,29.71,18,2,21,0.17
2017-5-20,65.7,56.9,48.2,53.1,49.3,45.5,100,78,55,30.26,29.96,9,1,18,0.00
2017-5-21,69.4,58.0,46.6,52.2,48.1,43.9,93,67,47,30.34,30.22,8,1,13,0.00
2017-5-22,77.4,63.8,50.2,54.3,50.7,46.2,87,63,38,30.22,29.97,17,3,22,0.00
2017-5-23,74.8,65.4,55.9,59.2,52.7,46.2,87,64,47,30.21,29.94,25,3,27,0.00
2017-5-24,73.6,62.2,50.9,59.7,54.4,47.3,92,75,60,30.25,30.19,14,2,21,0.00
2017-5-25,77.4,64.8,52.3,58.8,55.1,50.2,95,75,52,30.29,30.19,9,0,14,0.00
2017-5-26,81.3,68.6,55.9,60.1,56.4,52.7,91,66,41,30.23,30.07,16,3,18,0.00
2017-5-27,89.1,74.8,60.6,63.1,57.2,52.9,83,56,30,30.09,29.96,21,6,26,0.00
2017-5-28,84.0,73.6,63.1,65.3,61.3,56.8,93,70,49,30.10,30.01,13,0,13,0.02
2017-5-29,86.2,73.8,61.3,68.7,62.1,55.9,85,76,56,30.01,29.82,14,1,17,0.00
2017-5-30,75.6,68.8,62.1,66.6,61.8,54.0,94,80,64,30.07,29.86,19,2,26,0.12
2017-5-31,77.4,67.1,56.8,60.3,55.9,51.4,89,72,52,30.20,30.07,13,1,19,0.00
2017-6-1,78.6,64.4,50.2,55.4,50.9,46.4,89,62,38,30.22,30.09,6,1,13,0.00
2017-6-2,83.8,68.9,54.1,61.2,56.4,50.2,90,64,45,30.10,29.94,12,1,16,0.00
2017-6-3,80.2,71.4,62.6,62.6,58.9,56.1,86,74,53,29.95,29.87,12,0,13,0.00
2017-6-4,70.5,62.4,54.3,59.2,50.9,42.8,92,63,47,30.02,29.93,18,4,26,0.01
2017-6-5,73.2,61.1,49.1,54.0,49.4,45.7,91,65,44,30.01,29.69,8,1,17,0.00
2017-6-6,66.9,61.4,55.9,57.0,51.5,46.8,94,72,56,29.69,29.42,21,6,30,0.35
2017-6-7,63.1,58.4,53.8,54.9,50.5,46.8,94,78,60,29.99,29.63,23,3,28,0.15
2017-6-8,75.6,64.9,54.3,59.2,54.3,46.6,90,72,53,30.00,29.86,14,1,18,0.02
2017-6-9,69.4,62.8,56.1,62.6,56.5,50.9,95,76,55,30.02,29.79,21,2,25,0.40
2017-6-10,77.2,64.4,51.6,60.8,54.8,49.1,91,73,50,30.12,30.02,13,0,17,0.10
2017-6-11,85.3,72.9,60.6,65.5,60.8,53.2,90,72,43,30.07,29.85,14,1,28,0.02
2017-6-12,65.1,60.6,56.1,55.4,52.6,49.3,88,72,59,30.06,29.90,16,2,26,0.00
2017-6-13,69.1,62.2,55.2,56.5,54.2,52.5,91,75,58,30.13,30.05,14,1,17,0.00
2017-6-14,77.4,63.6,49.8,59.7,52.6,47.7,95,68,42,30.15,30.00,8,1,13,0.00
2017-6-15,84.7,71.1,57.4,66.0,57.6,52.0,85,66,45,30.02,29.88,19,2,30,0.00
2017-6-16,66.9,61.1,55.2,57.0,53.6,49.1,91,72,60,30.27,29.96,23,4,28,0.00
2017-6-17,73.2,62.8,52.3,63.3,57.6,48.4,90,80,69,30.30,30.25,6,0,14,0.00
2017-6-18,82.8,68.9,54.9,65.8,60.7,53.1,96,74,51,30.30,30.17,8,1,9,0.00
2017-6-19,88.9,75.7,62.4,64.2,60.5,56.5,91,63,36,30.19,30.02,8,2,16,0.00
2017-6-20,87.1,76.8,66.6,67.6,64.4,57.2,78,62,46,30.09,30.04,12,2,17,0.00
2017-6-21,83.8,70.7,57.6,64.6,59.0,51.6,81,64,49,30.10,29.95,8,2,13,0.00
2017-6-22,92.8,79.6,66.4,69.3,63.2,58.1,84,65,38,29.95,29.75,22,4,31,0.04
2017-6-23,77.0,70.5,64.2,64.2,60.6,57.0,86,73,57,30.00,29.87,19,2,25,0.00
2017-6-24,67.6,63.8,59.9,61.9,58.5,54.3,93,83,70,30.00,29.89,13,1,19,0.00
2017-6-25,68.5,65.3,62.2,62.2,60.5,57.9,94,87,76,29.89,29.81,13,1,21,0.03
2017-6-26,75.2,67.7,60.4,59.5,54.1,49.3,93,67,43,29.94,29.85,14,1,18,0.01
2017-6-27,69.8,62.0,54.1,61.3,54.3,47.8,93,74,60,29.94,29.60,9,3,17,0.00
2017-6-28,71.2,67.0,62.8,68.0,63.4,60.4,96,93,86,29.60,29.38,13,2,0,0.00
2017-6-29,65.1,61.8,58.6,63.3,59.8,57.2,97,95,91,29.42,29.36,13,0,0,0.01
2017-7-2,69.6,63.2,56.7,57.7,53.9,51.3,82,69,61,30.19,30.09,13,2,22,0.83
2017-7-3,74.7,62.1,49.5,60.3,54.0,47.8,96,74,53,30.20,30.09,18,1,21,0.00
2017-7-4,74.1,66.6,59.2,63.5,60.1,55.9,95,83,65,30.16,30.09,5,0,12,0.02
2017-7-5,81.1,69.1,57.0,64.9,60.3,54.7,94,75,52,30.09,30.03,9,0,14,0.00
2017-7-6,81.1,68.2,55.4,67.8,61.2,53.4,96,75,52,30.09,29.92,6,1,12,0.03
2017-7-9,69.1,69.1,69.1,66.0,66.0,66.0,90,90,90,30.01,30.01,0,0,0,0.00
2017-7-16,76.3,69.4,62.4,68.7,64.6,59.7,93,86,75,30.19,30.17,8,1,0,0.00
2017-7-17,77.0,69.1,61.2,64.0,58.4,52.7,95,73,44,30.22,30.17,6,0,9,0.00
2017-7-18,79.7,67.7,55.9,61.9,58.1,52.7,91,71,50,30.19,29.96,16,2,17,0.00
2017-7-19,88.3,75.7,63.1,71.8,64.1,58.8,92,73,49,29.95,29.75,16,2,17,0.07
2017-7-20,79.5,70.2,61.0,69.6,64.1,57.2,96,84,53,29.92,29.72,17,1,23,0.49
2017-7-21,76.3,64.5,52.7,57.6,54.4,50.7,93,70,45,29.97,29.84,8,1,13,0.01
2017-7-22,81.3,72.2,63.1,64.9,60.5,55.9,93,71,49,29.89,29.81,9,0,17,0.20
2017-7-23,70.9,64.3,57.7,62.2,58.4,55.9,96,88,66,29.91,29.84,16,1,22,0.44
2017-7-24,69.1,62.8,56.5,60.3,57.3,54.5,96,89,67,29.88,29.78,5,0,16,0.39
2017-7-25,66.4,62.3,58.3,61.3,58.8,56.8,98,92,78,29.86,29.78,18,1,25,0.21
2017-7-26,76.3,67.4,58.5,63.9,59.8,57.4,96,82,56,29.83,29.74,12,1,17,0.00
2017-7-27,71.4,65.9,60.4,63.0,59.8,56.3,94,81,59,29.75,29.69,14,0,18,0.02
2017-7-28,70.9,63.5,56.1,61.0,57.3,53.2,93,82,64,29.92,29.75,12,1,19,0.04
2017-7-29,75.2,67.8,60.4,66.6,62.1,58.1,93,80,70,29.89,29.74,16,1,22,0.00
2017-7-30,79.5,70.8,62.2,66.6,62.6,58.5,95,78,55,29.87,29.66,17,1,27,0.02
2017-7-31,77.5,66.4,55.4,61.9,57.9,53.1,95,75,52,29.96,29.87,6,0,16,0.00
2017-8-1,72.5,65.9,59.4,63.0,59.4,54.1,94,80,53,30.03,29.92,0,0,1,0.00
2017-8-2,77.2,68.1,59.0,62.2,59.1,55.0,94,79,47,30.06,29.95,5,0,14,0.04
2017-8-3,75.6,68.6,61.5,65.8,60.7,54.3,96,80,53,29.95,29.78,16,2,26,0.06
2017-8-4,72.7,65.8,59.0,61.3,57.1,54.1,85,75,61,29.94,29.82,17,2,26,0.00
2017-8-5,68.7,61.9,55.2,62.2,56.9,51.8,94,86,67,30.09,29.88,11,0,16,0.90
2017-8-6,74.1,62.6,51.1,59.9,54.0,49.5,96,79,50,30.22,30.09,6,0,16,0.00
2017-8-7,77.4,63.7,50.0,60.1,54.6,48.4,96,75,46,30.19,29.98,6,0,12,0.00
2017-8-8,70.2,63.4,56.7,62.4,58.1,54.7,95,86,72,29.98,29.72,4,0,19,0.06
2017-8-9,73.9,64.6,55.2,59.9,56.6,53.6,96,80,54,30.07,29.85,8,0,13,0.01
2017-8-10,65.7,60.6,55.6,61.3,57.4,53.2,95,89,79,30.16,30.07,0,0,1,0.23
2017-8-11,69.1,63.2,57.4,59.7,57.3,54.0,96,84,66,30.13,29.97,5,0,14,0.11
2017-8-12,71.8,64.6,57.4,66.4,59.2,53.8,96,87,75,30.03,29.92,12,1,19,0.10
2017-8-13,74.1,63.7,53.2,62.8,57.8,51.6,96,84,59,30.18,30.02,6,0,14,0.00
2017-8-14,77.5,65.8,54.0,63.7,58.9,52.5,96,81,57,30.18,30.00,9,1,13,0.00
2017-8-15,78.3,68.3,58.3,67.8,62.8,56.5,96,88,64,30.06,29.92,8,0,17,0.06
2017-8-16,75.4,67.2,59.0,64.0,61.2,58.1,97,80,60,30.18,30.06,1,0,8,0.01
2017-8-17,69.3,62.7,56.1,65.1,61.0,54.5,96,91,82,30.08,29.93,8,0,16,0.04
2017-8-18,72.5,64.5,56.5,65.5,61.1,54.9,95,90,74,29.94,29.84,6,0,25,0.28
2017-8-19,68.5,61.2,53.8,60.3,54.6,51.8,95,83,62,30.09,29.90,16,1,22,0.01
2017-8-20,69.3,62.0,54.7,59.2,54.0,50.7,95,80,58,30.24,30.08,17,2,25,0.02
2017-8-21,73.8,63.1,52.3,59.9,54.3,49.8,93,78,52,30.24,30.17,0,0,1,0.00
2017-8-22,75.9,65.7,55.4,60.4,56.4,53.1,94,77,51,30.19,30.08,8,1,14,0.00
2017-8-23,79.9,67.2,54.5,62.6,57.1,51.3,90,72,48,30.09,29.89,14,2,17,0.00
2017-8-24,77.2,67.4,57.7,63.9,59.7,54.1,92,79,52,30.07,29.91,14,1,18,0.00
2017-8-25,75.6,63.3,51.1,61.0,56.3,49.5,96,78,56,30.09,30.01,4,0,6,0.00
2017-8-26,80.2,67.1,54.1,63.3,58.6,52.3,96,78,50,30.01,29.96,12,0,16,0.00
2017-8-27,79.3,68.0,56.7,62.6,58.1,54.5,96,77,46,30.10,30.00,5,0,9,0.00
2017-8-28,83.3,68.4,53.4,65.8,58.6,51.8,95,77,47,30.10,30.02,5,0,9,0.00
2017-8-29,89.6,73.5,57.4,70.2,62.7,55.6,97,76,44,30.02,29.83,11,1,17,0.00
2017-8-30,76.6,69.3,62.1,69.8,65.4,61.0,96,88,75,29.83,29.68,13,1,31,1.11
2017-8-31,66.7,59.9,53.1,60.8,55.6,51.1,96,87,62,30.13,29.77,16,1,18,0.03
2017-9-1,70.0,61.3,52.7,58.3,54.8,50.9,96,85,63,30.16,30.11,12,0,16,0.00
2017-9-2,70.2,61.3,52.5,57.0,53.1,50.0,95,81,51,30.15,30.10,5,0,16,0.00
2017-9-3,71.8,59.3,46.8,59.5,52.0,45.3,98,81,53,30.12,29.94,8,0,12,0.00
2017-9-4,74.3,63.0,51.6,57.9,54.3,49.6,95,77,49,30.05,29.94,14,0,17,0.00
2017-9-5,75.6,68.3,61.0,67.3,62.6,57.7,94,85,74,30.05,29.95,18,0,21,0.09
2017-9-6,67.3,62.2,57.0,62.8,56.5,50.4,96,82,56,30.04,29.87,19,3,31,0.06
2017-9-7,66.7,61.0,55.4,57.7,54.8,53.2,93,82,66,30.03,29.83,6,0,14,0.00
2017-9-8,60.8,59.3,57.9,59.2,56.9,54.7,95,92,84,29.83,29.44,16,2,25,0.39
2017-9-9,65.1,59.4,53.8,58.6,55.9,52.2,97,92,74,29.56,29.34,9,0,27,0.54
2017-9-10,65.5,57.4,49.3,57.9,52.4,48.0,96,84,68,29.65,29.43,17,1,23,0.00
2017-9-11,65.7,59.8,53.8,55.6,53.9,51.3,94,82,64,29.48,29.35,22,2,30,0.40
2017-9-12,64.8,59.0,53.1,56.8,53.3,48.9,95,85,63,29.76,29.47,17,2,25,0.04
2017-9-13,64.8,59.1,53.4,56.1,52.4,48.7,95,83,59,29.73,29.34,26,6,40,0.72
2017-9-14,58.3,53.9,49.6,53.6,51.2,48.2,96,93,78,29.84,29.48,19,2,28,0.57
2017-9-15,63.9,56.4,49.8,55.6,50.6,48.0,97,95,70,29.87,29.81,4,0,18,0.09
2017-9-16,63.0,49.5,49.5,47.8,47.8,46.0,94,94,94,29.90,29.80,3,0,6,0.00
2017-9-21,67.3,58.2,49.1,55.2,51.1,46.9,94,80,56,30.15,30.09,11,0,13,0.00
2017-9-22,68.7,57.2,45.7,59.0,53.0,44.2,97,87,66,30.21,30.09,0,0,1,0.00
2017-9-23,66.4,58.0,49.8,57.6,52.9,47.7,97,87,64,30.28,30.20,0,0,1,0.00
2017-9-24,67.3,59.5,51.6,59.4,55.9,50.7,98,85,72,30.23,30.19,6,1,9,0.00
2017-9-25,65.5,58.5,51.4,59.2,55.1,49.5,96,90,77,30.21,30.14,6,1,9,0.01
2017-9-26,64.8,57.2,49.5,58.8,54.4,48.0,97,92,78,30.22,30.15,5,0,8,0.00
2017-9-27,70.5,61.4,52.3,61.9,56.0,51.3,97,86,66,30.23,30.17,13,2,14,0.00
2017-9-28,68.9,62.7,56.5,63.5,58.9,54.5,98,92,82,30.19,30.15,9,2,13,0.09
2017-9-29,73.0,66.6,60.1,65.7,62.4,59.0,97,90,77,30.19,30.01,16,3,18,0.29
2017-9-30,63.9,57.1,50.2,62.4,56.6,48.9,97,95,92,30.09,29.99,8,0,16,0.66
2017-10-1,65.5,57.5,49.6,57.6,52.5,48.6,97,85,67,30.11,29.97,18,4,25,0.00
2017-10-2,66.0,61.8,57.7,59.4,55.3,53.1,94,82,67,29.98,29.84,19,2,22,0.02
2017-10-3,61.5,56.8,52.0,54.5,52.3,49.1,94,87,74,30.22,29.88,19,2,25,0.02
2017-10-4,59.0,55.2,51.4,51.4,49.8,48.2,91,84,73,30.22,30.02,16,1,27,0.01
2017-10-5,59.2,53.7,48.2,58.1,51.4,46.0,97,88,71,30.01,29.65,27,4,43,0.46
2017-10-6,59.0,53.2,47.5,53.2,48.7,45.3,96,89,71,30.23,29.99,17,2,26,0.18
2017-10-7,54.9,52.2,49.5,54.0,50.0,45.9,97,92,86,30.23,29.84,14,1,21,0.60
2017-10-8,57.7,51.5,45.3,54.3,50.8,43.7,97,90,72,30.14,29.86,6,0,23,0.04
2017-10-9,57.9,50.6,43.3,55.8,50.1,42.1,97,95,91,30.14,30.02,9,0,14,0.11
2017-10-10,60.4,57.2,54.0,57.6,55.3,52.9,97,94,86,30.02,29.94,8,0,17,0.04
2017-10-11,61.5,58.8,56.1,56.3,54.3,52.5,93,86,79,29.99,29.89,9,0,17,0.00
2017-10-12,61.3,56.4,51.6,56.1,51.9,48.7,92,83,67,30.22,29.87,27,2,27,0.00
2017-10-13,67.3,58.8,50.2,61.0,55.3,48.4,96,89,77,30.26,30.21,13,0,14,0.00
2017-10-14,71.4,63.8,56.3,63.7,58.5,54.9,95,88,72,30.31,30.25,8,1,14,0.00
2017-10-15,73.4,62.8,52.5,63.7,57.6,51.4,98,85,67,30.27,30.12,13,2,17,0.01
2017-10-16,76.8,67.4,58.1,66.2,60.4,55.4,92,81,67,30.16,30.09,13,2,16,0.00
2017-10-17,65.8,59.2,52.7,59.2,54.9,51.1,96,87,79,30.18,30.04,4,0,12,0.00
2017-10-18,67.1,59.8,52.5,59.7,55.1,50.9,97,91,75,30.04,29.88,9,1,14,0.00
2017-10-19,69.6,60.8,52.0,59.7,55.9,50.5,96,86,69,29.89,29.76,16,4,18,0.00
2017-10-20,63.7,58.6,53.4,57.4,53.6,48.6,91,83,70,29.89,29.69,19,7,25,0.04
2017-10-21,64.6,57.9,51.3,59.0,51.0,46.9,95,84,66,29.89,29.80,19,3,23,0.12
2017-10-22,55.2,52.3,49.5,53.1,49.0,46.8,96,90,81,29.94,29.74,16,4,26,0.28
2017-10-23,59.2,53.8,48.7,53.2,49.7,46.4,94,88,74,30.14,29.94,14,2,22,0.00
2017-10-24,62.1,58.5,55.0,60.6,57.1,53.1,97,95,93,30.14,30.09,9,2,14,0.04
2017-10-25,61.3,58.1,54.9,59.5,57.2,53.8,97,93,86,30.25,30.05,13,2,25,0.00
2017-10-26,62.8,58.8,54.7,58.8,55.4,52.5,98,93,81,30.26,30.19,6,0,18,0.00
2017-10-27,59.0,54.5,50.0,54.0,49.8,47.1,94,86,70,30.43,30.19,14,1,26,0.01
2017-10-28,57.7,53.0,48.2,56.3,49.3,45.7,97,91,82,30.41,29.81,19,3,23,0.09
2017-10-29,58.3,51.8,45.3,56.1,46.5,41.7,95,82,65,30.19,29.70,30,4,38,0.15
2017-10-30,54.0,47.0,39.9,44.6,41.4,38.3,95,85,64,30.38,30.18,12,1,17,0.00
2017-10-31,52.0,48.4,44.8,47.8,45.6,42.8,94,90,82,30.37,30.18,11,1,14,0.02
2017-11-1,57.4,53.9,50.4,53.2,49.3,45.9,95,88,77,30.19,29.98,9,2,16,0.01
2017-11-2,54.5,49.8,45.0,51.1,47.4,41.9,96,89,79,30.02,29.88,11,0,13,0.00
2017-11-3,54.7,49.3,43.9,52.2,47.9,42.8,98,95,87,30.03,29.91,8,0,13,0.00
2017-11-4,59.0,51.2,43.3,54.9,48.7,42.3,96,92,79,29.91,29.62,14,2,21,0.15
2017-11-5,53.8,46.0,38.3,52.2,44.6,37.0,96,92,74,30.02,29.67,16,1,21,0.20
2017-11-6,52.2,44.2,36.1,45.1,40.0,34.5,98,90,66,30.32,30.02,5,0,9,0.06
2017-11-7,41.7,37.0,32.2,41.2,36.7,30.9,98,96,95,30.31,30.06,9,1,12,0.01
2017-11-8,46.6,43.9,41.2,45.1,43.1,40.5,97,96,94,30.18,30.04,5,0,9,0.00
2017-11-9,51.1,47.7,44.2,47.1,45.1,43.0,97,93,86,30.22,30.13,13,1,18,0.02
2017-11-10,53.6,47.5,41.4,50.2,45.6,39.0,97,92,80,30.12,29.85,23,4,30,0.18
2017-11-11,47.1,43.0,39.0,45.1,41.6,37.9,96,94,89,29.96,29.73,14,2,19,0.12
2017-11-12,43.9,41.3,38.7,42.1,39.8,37.6,100,94,88,29.81,29.52,14,1,22,0.12
2017-11-13,50.7,43.8,37.0,44.6,40.9,35.6,95,90,75,30.22,29.80,17,1,30,0.07
2017-11-14,48.0,42.2,36.3,45.9,41.8,35.1,100,92,83,30.25,30.20,14,3,17,0.00
2017-11-15,49.3,48.0,46.8,48.4,46.7,45.0,97,96,93,30.30,30.25,5,0,9,0.00
2017-11-16,50.2,49.0,47.8,49.3,48.0,46.8,97,96,94,30.26,30.17,12,0,19,0.06
2017-11-17,77.4,57.6,37.8,55.6,45.0,35.8,98,74,47,30.35,30.24,0,0,8,0.00
2017-11-18,46.6,42.2,37.8,44.4,40.1,36.0,96,90,81,30.26,29.97,18,3,26,0.20
2017-11-19,49.3,43.4,37.6,43.3,40.1,36.3,96,91,77,30.15,29.96,19,2,27,0.09
2017-11-20,52.7,46.4,40.1,52.2,42.5,38.7,98,95,92,30.15,29.81,14,2,19,0.40
2017-11-21,54.3,52.2,50.2,53.8,51.2,47.8,98,96,91,29.86,29.76,16,3,23,0.17
2017-11-22,55.9,52.2,48.6,49.6,47.1,41.9,95,84,76,29.77,29.55,18,4,26,0.00
2017-11-23,59.5,53.0,46.4,53.2,45.5,41.9,91,79,70,29.82,29.44,23,4,27,0.16
2017-11-24,49.3,45.3,41.4,46.4,43.9,39.9,97,94,87,29.94,29.72,6,0,8,0.28
2017-11-25,44.4,39.7,34.9,42.6,37.4,33.8,97,92,82,30.05,29.85,8,1,15,0.07
2017-11-26,45.7,41.3,36.9,41.2,37.5,35.2,95,91,82,30.22,30.05,17,5,23,0.07
2017-11-27,46.9,42.5,38.1,45.7,41.5,36.3,100,95,91,30.20,29.73,22,5,28,0.50
2017-11-28,47.5,41.5,35.4,42.8,39.2,34.3,96,92,82,29.73,29.68,13,4,19,0.02
2017-11-29,37.9,35.2,32.5,36.7,34.4,31.5,100,96,95,29.76,29.66,4,0,54,0.01
2017-11-30,40.6,37.9,35.2,39.2,36.6,34.2,97,95,91,29.75,29.64,8,1,14,0.00
2017-12-1,40.3,35.6,30.9,37.6,34.3,29.8,96,94,87,30.25,29.75,8,0,11,0.00
2017-12-2,32.2,30.3,28.4,31.5,29.7,27.7,97,97,96,30.38,30.25,6,0,8,0.00
2017-12-3,40.6,36.4,32.2,40.1,35.8,31.5,98,97,97,30.33,30.22,11,3,15,0.08
2017-12-4,47.8,44.0,40.3,45.3,42.7,39.2,98,96,90,30.54,30.32,13,1,19,0.02
2017-12-5,45.1,42.4,39.7,43.3,41.7,38.7,100,93,87,30.55,30.51,11,4,17,0.00
2017-12-6,47.8,46.0,44.2,43.5,41.8,39.2,90,87,80,30.51,30.27,14,4,18,0.00
2017-12-7,45.0,42.1,39.2,43.7,39.3,35.4,96,87,77,30.27,29.72,21,7,30,0.35
2017-12-8,43.0,38.2,33.6,41.5,34.8,32.0,100,93,87,29.89,29.75,15,4,28,0.18
2017-12-9,35.8,34.6,33.4,34.9,33.3,32.2,97,95,91,29.92,29.75,18,4,23,0.39
2017-12-10,40.6,36.8,33.1,39.7,33.9,32.0,98,94,87,29.75,28.71,30,9,43,0.40
2017-12-11,35.1,33.8,32.4,33.1,31.7,30.2,96,93,88,29.15,28.89,21,5,28,0.19
2017-12-12,37.8,36.0,34.2,35.8,34.2,33.1,96,94,92,29.95,29.12,17,3,21,0.17
2017-12-13,44.8,39.8,34.9,43.7,38.2,33.1,96,94,90,29.94,29.13,25,6,37,0.54
2017-12-14,42.3,39.2,36.0,40.1,37.3,34.5,96,93,89,29.34,29.20,21,4,28,0.33
2017-12-15,40.6,38.3,36.1,38.5,36.8,34.5,100,94,91,29.66,29.26,7,0,11,0.00
2017-12-16,43.0,38.7,34.3,39.0,35.8,33.3,97,94,86,30.08,29.66,11,1,22,0.02
2017-12-17,41.4,36.9,32.4,39.2,35.4,31.6,97,95,91,30.26,30.08,17,2,25,0.13
2017-12-18,43.9,39.2,34.5,43.2,38.8,33.3,98,97,95,30.47,30.02,8,1,19,0.17
2017-12-19,45.0,41.7,38.3,44.2,41.1,37.2,98,97,93,30.57,30.46,6,1,8,0.04
2017-12-20,47.5,45.2,43.0,46.9,44.4,42.1,98,97,96,30.58,30.51,6,0,8,0.01
2017-12-21,49.5,47.2,44.8,49.1,46.7,44.1,100,98,97,30.58,30.53,8,1,14,0.03
2017-12-22,49.8,47.8,45.9,49.5,47.4,45.3,99,98,98,30.62,30.50,3,0,4,0.06
2017-12-23,49.5,48.0,46.4,48.4,47.0,45.7,99,95,91,30.61,30.39,17,6,25,0.00
2017-12-24,50.2,49.0,47.7,48.6,47.0,45.1,95,92,89,30.39,30.16,15,7,22,0.00
2017-12-25,48.0,44.3,40.6,46.0,42.6,37.0,95,90,85,30.17,29.73,17,5,25,0.00
2017-12-26,45.7,42.7,39.6,41.9,39.1,36.3,94,87,80,29.73,29.37,17,6,30,0.06
2017-12-27,43.9,41.5,39.0,41.7,39.4,36.9,95,90,84,29.36,29.03,23,7,32,0.13
2017-12-28,41.9,38.8,35.6,37.0,35.3,33.4,95,88,78,29.70,29.24,14,3,22,0.01
2017-12-29,42.1,37.4,32.7,40.3,34.2,30.9,97,93,85,29.74,29.42,25,6,33,0.24
2017-12-30,54.3,47.0,39.7,51.1,45.0,36.5,98,90,84,29.65,29.33,25,9,33,0.13
2017-12-31,57.4,53.3,49.3,52.9,50.7,46.4,97,92,82,29.67,29.44,22,7,30,0.47
2018-1-1,49.3,45.5,41.7,46.4,42.1,40.3,96,90,81,29.61,29.45,33,6,40,0.50
2018-1-2,46.6,43.9,41.2,45.5,41.5,40.1,97,93,88,29.90,29.51,14,3,28,0.09